{"data":{"norad_id":42804,"intl_designator":"2017-039B","name":"IRIDIUM 123","alt_names":[],"object_type":"PAYLOAD","status":"ACTIVE","operator":null,"country":"US","launch_date":"2017-06-25","launch_site_code":"AFWTR","launch_vehicle":null,"mission":null,"orbit_class":"UNKNOWN","rcs_meters":null,"size_class":null,"mass_kg":null,"dimensions":null,"purposes":["comms"],"wikipedia_slug":null,"has_3d_model":false,"image_url":null,"decayed_at":null,"tle_current":{"epoch":"2026-09-20T02:20:02.940000Z","epoch_age_seconds":50315,"freshness":"FRESH","line1":"1 42804U 17039B   26263.09725625  .00000044  00000+0  87226-5 0  9990","line2":"2 42804  86.3973 313.9858 0002226  90.6018 269.5433 14.34217724483551","mean_motion":14.34217724,"eccentricity":0.0002226,"inclination_deg":86.3973,"raan_deg":313.9858,"arg_perigee_deg":90.6018,"mean_anomaly_deg":269.5433,"bstar":8.7226e-6,"rev_number":48355,"period_min":100.40316584457,"perigee_km":776.07435881142,"apogee_km":779.26012285944,"semimajor_km":7155.8042408354,"source":"CELESTRAK","updated_at":"2026-09-20T09:00:36.321943Z"}}}